Orangeburg, SC

11:55 PM EDT on September 24, 2017 (GMT -0400)
Orangeburg Municipal

Weather History for KOGB - February, 2014

Change the Weather History Date:

Friday, February 21, 2014

  Actual Average Record
Temperature  
Mean Temperature 57 °F 51 °F  
Max Temperature 70 °F 62 °F 78 °F (1986)
Min Temperature 44 °F 39 °F 20 °F (1958)
Degree Days  
Heating Degree Days 8 14  
Month to date heating degree days 275 341  
Since 1 July heating degree days 1772 1838  
Cooling Degree Days 0 0  
Month to date cooling degree days 6 0  
Year to date cooling degree days 6 1  
Growing Degree Days 8 (Base 50)    
Moisture  
Dew Point 56 °F    
Average Humidity 77    
Maximum Humidity 93    
Minimum Humidity 47    
Precipitation  
Precipitation 0.93 in 0.15 in 1.60 in (1961)
Month to date precipitation 3.35 2.54  
Year to date precipitation 5.51 6.52  
Sea Level Pressure  
Sea Level Pressure 29.96 in    
Wind  
Wind Speed 9 mph (SW)    
Max Wind Speed 23 mph    
Max Gust Speed 31 mph    
Visibility 8 miles    
Events Fog , Rain    
T = Trace of Precipitation, MM = Missing Value Source: NWS Daily Summary

Daily Weather History Graph

Daily Weather History Graph

Search for Another Location

Airport or City:

Trip Planner

Search our weather history database for the weather conditions in past years. The results will help you decide how hot, cold, wet, or windy it might be!

Date:

Astronomy

Feb. 21, 2014 Rise Set
Actual Time 7:01 AM EST 6:13 PM EST
Civil Twilight 6:35 AM EST 6:38 PM EST
Nautical Twilight 6:06 AM EST 7:07 PM EST
Astronomical Twilight 5:38 AM EST 7:36 PM EST
Moon No Moon Rise 10:44 AM EST (2/21)
Length of Visible Light 12h 02m
Length of Day
11h 12m
Waning Gibbous, 61% of the Moon is Illuminated
Feb 21
Waning Gibbous
Feb 22
Last Quarter
Mar 1
New
Mar 8
First Quarter
Mar 16
Full

Hourly Weather History & Observations

Time (EST) Temp. Dew Point Humidity Pressure Visibility Wind Dir Wind Speed Gust Speed Precip Events Conditions
12:53 AM 66.0 °F 62.1 °F 87% 30.01 in 10.0 mi South 9.2 mph - N/A   Overcast
2:28 AM 66.0 °F 62.1 °F 87% 29.99 in 10.0 mi South 10.4 mph - N/A   Mostly Cloudy
2:40 AM 66.0 °F 61.0 °F 84% 29.99 in 10.0 mi SSW 12.7 mph 20.7 mph N/A   Scattered Clouds
2:53 AM 66.0 °F 61.0 °F 84% 29.99 in 10.0 mi SSW 12.7 mph - N/A   Partly Cloudy
3:53 AM 64.9 °F 61.0 °F 87% 29.96 in 10.0 mi South 8.1 mph - N/A   Clear
4:53 AM 64.0 °F 61.0 °F 90% 29.95 in 10.0 mi South 5.8 mph - N/A   Clear
5:53 AM 64.9 °F 61.0 °F 87% 29.93 in 10.0 mi South 8.1 mph - N/A   Clear
6:53 AM 66.0 °F 61.0 °F 84% 29.93 in 10.0 mi South 11.5 mph - N/A   Clear
7:53 AM 66.0 °F 61.0 °F 84% 29.94 in 10.0 mi South 9.2 mph - N/A   Clear
8:53 AM 68.0 °F 61.0 °F 78% 29.95 in 10.0 mi SSW 11.5 mph - N/A   Mostly Cloudy
9:49 AM 69.8 °F 62.6 °F 78% 29.93 in 10.0 mi SSW 15.0 mph 21.9 mph N/A   Overcast
9:53 AM 69.1 °F 62.1 °F 78% 29.94 in 10.0 mi SSW 12.7 mph 21.9 mph N/A   Overcast
10:41 AM 68.0 °F 63.0 °F 84% 29.94 in 1.2 mi West 6.9 mph - 0.14 in Rain Heavy Rain
10:46 AM 66.9 °F 64.0 °F 90% 29.96 in 0.8 mi West 10.4 mph - 0.23 in Rain Heavy Rain
10:53 AM 66.0 °F 63.0 °F 90% 29.97 in 0.5 mi West 21.9 mph 31.1 mph 0.61 in Fog , Rain Heavy Rain
11:05 AM 64.0 °F 61.0 °F 90% 29.95 in 1.0 mi West 16.1 mph 26.5 mph 0.19 in Rain Heavy Rain
11:07 AM 64.0 °F 61.0 °F 90% 29.95 in 1.5 mi West 17.3 mph 24.2 mph 0.20 in Rain Heavy Rain
11:12 AM 64.0 °F 59.0 °F 84% 29.94 in 2.0 mi West 13.8 mph 24.2 mph 0.22 in Rain Heavy Rain
11:21 AM 63.0 °F 59.0 °F 87% 29.95 in 6.0 mi South 6.9 mph - 0.23 in Rain Light Rain
11:53 AM 63.0 °F 60.1 °F 90% 29.90 in 5.0 mi South 12.7 mph 18.4 mph 0.30 in Rain Rain
12:24 PM 63.0 °F 60.1 °F 90% 29.93 in 10.0 mi SSW 12.7 mph 19.6 mph 0.02 in Rain Light Rain
12:53 PM 64.0 °F 60.1 °F 87% 29.93 in 10.0 mi SW 12.7 mph - 0.02 in   Mostly Cloudy
1:53 PM 64.9 °F 60.1 °F 84% 29.92 in 10.0 mi SW 12.7 mph - N/A   Overcast
2:32 PM 64.0 °F 59.0 °F 84% 29.92 in 10.0 mi West 11.5 mph - 0.00 in Rain Light Rain
2:50 PM 64.4 °F 55.4 °F 73% 29.91 in 10.0 mi WSW 11.5 mph - 0.00 in   Overcast
2:53 PM 66.0 °F 55.9 °F 70% 29.91 in 10.0 mi WSW 11.5 mph - 0.00 in   Overcast
3:48 PM 66.2 °F 53.6 °F 64% 29.92 in 10.0 mi WSW 18.4 mph - N/A   Partly Cloudy
3:53 PM 68.0 °F 53.1 °F 59% 29.91 in 10.0 mi West 15.0 mph - N/A   Partly Cloudy
4:53 PM 66.9 °F 52.0 °F 59% 29.93 in 10.0 mi West 10.4 mph - N/A   Overcast
5:53 PM 64.9 °F 46.0 °F 50% 29.96 in 10.0 mi West 10.4 mph - N/A   Clear
6:53 PM 61.0 °F 43.0 °F 52% 29.98 in 10.0 mi WNW 8.1 mph - N/A   Clear
7:53 PM 59.0 °F 39.9 °F 49% 30.01 in 10.0 mi NW 6.9 mph - N/A   Clear
8:53 PM 55.0 °F 37.0 °F 51% 30.03 in 10.0 mi West 4.6 mph - N/A   Clear
9:53 PM 48.0 °F 37.0 °F 66% 30.04 in 10.0 mi Calm Calm - N/A   Clear
10:53 PM 48.9 °F 36.0 °F 61% 30.05 in 10.0 mi SW 5.8 mph - N/A   Clear
11:53 PM 45.0 °F 36.0 °F 71% 30.05 in 10.0 mi Calm Calm - N/A   Clear